Theta_e
302 302 302 302 303 304 304 303 303 303 303 303 303 302 302 302 302 301 301 302 301 301 301 301 301 301 299 299 299 299 298 298 296 299 299 299 298 297 298 299 298 299 299
301 301 301 301 301 301 301 301 301 300 301 301 301 300 300 299 299 298 298 298 297 296 297 297 297 299 297 297 297 297 297 297 295 295 297 294 295 297 297 295 296 297 296
300 300 300 299 299 299 299 300 299 299 299 298 297 297 296 296 296 296 296 296 295 295 295 295 295 296 295 295 295 294 293 294 293 292 292 295 295 296 294 294 294 295 296
299 298 298 298 298 298 299 298 298 297 296 295 295 294 295 295 295 294 293 293 293 294 294 295 295 295 294 292 291 290 291 290 291 292 292 291 292 293 292 290 289 292 292
298 297 297 298 298 298 297 297 296 295 294 294 293 294 294 294 293 293 293 293 292 292 293 292 294 291 289 291 291 290 292 291 291 290 289 289 289 289 289 291 289 290 291
296 297 297 297 297 296 295 295 293 293 292 292 292 292 291 291 293 294 293 291 290 289 289 290 291 288 290 292 292 292 293 291 290 289 289 288 289 290 290 289 288 286 285
295 296 296 296 295 294 293 292 291 291 291 291 290 290 290 290 293 293 292 289 289 288 288 288 288 289 288 290 292 292 291 291 293 291 289 289 289 290 290 288 287 287 287
293 294 294 293 293 292 291 291 290 290 289 289 288 289 288 289 293 293 291 288 287 287 287 288 288 288 289 289 289 288 289 289 290 290 290 289 290 290 290 289 289 288 288
290 291 291 290 290 289 289 289 289 288 287 287 287 287 287 287 292 292 290 287 286 286 287 288 288 287 289 291 288 286 285 287 290 291 291 292 292 292 291 289 286 284 283
288 288 288 288 288 289 288 287 286 286 287 284 285 286 285 285 290 291 289 285 284 283 285 286 286 286 289 290 287 285 285 285 286 286 287 288 289 289 290 289 286 283 283
286 286 287 287 287 287 287 286 285 285 285 284 284 283 283 284 285 290 290 285 283 282 282 283 284 289 290 290 290 288 286 287 286 285 285 285 286 286 286 286 286 285 282
284 284 284 283 284 285 282 282 282 283 282 281 281 281 282 283 284 288 289 290 288 284 283 283 283 288 289 289 288 289 288 287 285 285 284 283 283 283 284 285 285 285 285
280 279 278 279 281 281 279 280 278 279 279 280 280 279 280 281 282 288 288 289 289 283 282 284 288 288 288 287 288 288 285 285 284 282 281 281 282 283 283 282 284 283 283
274 276 276 276 277 278 279 280 277 277 277 279 279 279 279 279 280 279 280 278 281 282 283 281 285 285 285 285 284 284 283 282 281 280 280 281 281 280 280 281 279 279 276
273 273 274 274 273 274 276 276 278 278 278 274 272 275 271 271 276 282 281 280 283 284 283 281 280 281 281 281 280 280 280 279 278 279 278 278 278 278 278 278 278 275 267
274 273 272 272 271 272 271 272 281 281 281 282 282 278 275 280 282 283 283 283 283 283 278 278 279 278 277 276 276 276 276 276 276 276 274 273 274 274 275 274 269 264 266
269 273 273 273 274 274 273 272 269 274 280 280 280 280 280 281 281 281 281 280 280 279 274 274 271 273 273 272 269 269 270 272 273 270 269 271 273 272 271 269 267 263 263
269 270 269 268 270 270 269 269 268 268 267 269 276 279 280 280 280 279 278 273 269 268 264 264 266 263 263 264 265 265 267 268 268 269 270 270 269 268 267 265 264 261 261
269 267 268 266 266 266 266 268 266 265 264 265 268 273 273 278 277 276 273 267 265 264 262 264 262 263 261 261 263 265 266 268 268 267 265 266 267 265 262 261 262 262 259
264 268 267 264 265 269 269 269 269 268 266 265 264 265 267 268 267 267 265 262 260 259 260 260 261 261 262 262 265 264 263 263 263 261 263 264 266 266 262 262 260 260 259
266 269 269 266 268 269 269 268 269 268 266 264 262 265 272 264 263 262 264 261 261 259 261 263 261 262 264 262 259 259 259 259 258 260 262 264 265 263 262 262 260 259 259
261 265 265 264 267 267 267 266 264 262 261 261 259 266 270 261 262 261 261 259 259 259 259 259 261 262 262 261 261 259 258 258 259 259 259 260 260 260 259 258 259 261 261
257 257 258 259 263 264 261 260 261 263 260 259 260 261 261 261 261 258 257 257 258 257 259 260 258 257 256 258 261 260 260 262 261 256 257 257 257 258 256 256 257 259 263
257 258 259 260 261 261 263 260 260 262 261 261 261 261 261 260 260 259 255 253 253 254 253 253 253 254 256 258 259 261 262 259 258 259 258 255 256 258 255 255 257 261 261
259 260 260 260 261 263 262 259 260 259 258 259 259 259 258 258 257 256 254 252 252 253 253 253 252 254 255 258 259 261 265 262 260 260 257 255 258 259 255 254 256 259 262
259 262 261 263 262 261 259 259 258 258 258 258 258 257 257 256 255 257 256 257 256 254 255 254 256 257 257 256 257 265 269 270 261 260 255 255 256 255 254 254 256 260 262
Wind_Speed
2 2 3 3 3 4 5 5 5 5 5 5 5 4 4 3 2 2 1 1 2 2 2 2 3 1 1 2 2 2 3 2 6 8 2 4 6 9 10 9 9 10 10
2 2 1 2 2 3 3 4 4 5 3 5 5 5 4 4 3 3 3 1 2 2 3 3 4 2 3 2 2 3 2 3 3 11 5 4 8 12 12 13 10 10 11
5 5 4 4 4 4 4 4 5 6 6 6 6 6 6 6 5 4 4 4 3 4 4 4 4 2 2 1 1 1 1 2 3 6 8 6 8 9 11 10 10 11 9
7 6 7 7 6 6 6 6 6 6 6 5 5 5 6 5 5 5 4 4 4 4 3 3 3 3 3 3 1 2 3 4 4 6 9 9 7 6 6 8 11 8 11
7 7 8 7 7 7 7 7 7 7 6 6 5 5 5 5 5 6 5 5 4 3 3 2 3 2 4 4 2 3 5 5 6 7 8 9 9 6 8 7 11 12 11
7 8 7 7 7 8 8 8 7 7 6 6 6 6 6 4 6 7 6 4 4 3 3 4 3 2 2 3 5 8 7 5 9 9 8 8 9 7 7 8 10 11 12
7 8 7 7 8 7 4 6 7 7 6 7 6 6 6 6 7 8 7 4 4 4 4 4 4 3 4 4 6 10 10 10 11 9 11 9 10 8 10 11 12 12 13
6 7 7 7 7 7 7 8 8 5 7 6 7 7 6 5 8 8 8 5 5 5 5 5 5 4 4 3 5 7 6 7 9 6 10 10 9 9 10 13 14 16 12
7 7 7 7 7 7 8 9 6 5 6 7 5 7 7 6 9 9 8 5 5 5 5 5 4 4 5 7 5 6 6 8 10 14 13 16 18 19 16 9 8 10 14
7 7 7 6 7 8 7 7 5 4 6 5 6 6 6 6 9 9 7 3 4 3 4 5 7 6 8 9 6 6 9 10 9 9 8 9 12 10 12 9 8 10 9
6 7 7 7 7 7 6 4 5 6 5 6 6 5 5 5 5 7 7 4 3 3 3 3 4 9 9 9 10 5 8 11 11 9 8 6 5 5 5 5 6 7 10
8 6 6 6 5 4 4 2 2 4 4 4 4 2 2 4 6 6 7 7 7 4 4 3 4 8 8 11 9 11 17 15 6 7 7 7 6 5 6 6 8 9 9
7 8 3 4 4 3 1 1 2 2 3 3 3 2 2 0 0 1 1 1 1 2 2 4 6 7 10 8 9 13 9 4 5 6 9 7 5 5 7 8 8 6 9
4 5 4 2 2 3 2 2 2 2 2 3 3 3 3 2 1 1 1 1 2 2 4 3 4 7 12 11 4 3 2 4 5 6 6 7 5 5 6 5 6 6 7
2 2 3 1 2 2 3 1 1 2 1 2 1 2 3 1 2 2 3 2 1 2 4 1 1 2 2 1 1 2 3 4 5 5 6 7 6 5 5 5 5 3 3
2 1 2 2 2 2 2 2 6 5 6 6 5 4 1 1 3 3 5 7 8 8 2 3 2 1 2 3 3 3 2 4 4 5 4 4 5 4 6 5 2 2 5
4 3 2 2 1 2 2 2 1 4 5 5 5 5 3 2 4 5 5 8 8 5 2 3 2 3 4 4 2 2 3 4 5 3 3 4 4 4 5 3 4 3 4
2 4 2 2 0 3 2 2 2 1 1 2 4 3 5 6 4 7 8 6 4 5 3 3 3 3 2 2 3 3 3 2 2 4 4 4 4 4 3 3 3 3 3
1 2 3 3 2 2 2 3 1 1 0 1 2 5 5 6 12 12 11 4 2 3 3 3 2 3 2 2 2 3 4 4 5 4 4 4 5 3 3 3 4 5 3
1 1 1 1 1 0 1 1 0 1 1 1 2 0 1 3 4 4 4 4 4 2 2 3 2 2 2 2 4 4 4 4 4 3 4 4 4 3 3 3 3 3 3
1 1 2 1 1 1 0 1 0 1 1 2 0 1 9 4 4 3 4 4 3 2 3 3 2 3 4 4 3 3 3 3 3 3 4 5 5 4 4 4 3 3 2
2 1 1 1 1 1 2 2 1 2 3 3 1 4 12 4 5 4 4 3 2 2 1 2 3 4 3 3 3 3 3 4 4 4 4 4 4 4 4 3 3 2 3
2 1 0 0 1 3 2 2 2 3 3 3 3 4 4 4 4 3 3 2 2 3 3 4 4 4 3 3 3 2 2 4 3 2 3 4 4 4 3 3 3 3 3
0 0 1 1 2 3 3 3 2 4 3 3 4 4 4 4 4 4 3 2 2 3 4 4 3 3 4 4 4 4 2 2 2 2 2 3 4 5 4 3 3 3 2
1 1 2 3 3 3 4 3 3 3 3 3 4 4 3 4 4 3 2 2 3 3 3 3 2 3 4 7 7 8 6 7 6 6 4 4 4 7 4 3 3 3 3
2 3 3 3 4 4 4 4 4 4 4 4 4 4 4 4 2 3 3 4 3 3 3 2 4 7 7 5 7 9 12 6 5 7 3 4 5 4 3 4 5 3 5
Wind_Direction
95 100 127 132 130 126 135 143 144 132 139 133 131 131 140 148 141 153 185 222 251 270 312 286 272 276 263 273 270 260 250 199 256 294 309 337 338 330 329 326 321 317 315
212 170 168 148 135 123 129 149 141 136 137 151 151 159 169 181 179 177 199 195 210 244 256 277 269 274 267 254 251 265 271 291 278 287 307 328 317 320 317 318 321 317 313
197 190 202 197 180 193 189 175 173 171 178 181 176 181 187 191 189 192 193 203 215 224 235 243 254 247 270 289 332 42 339 310 301 294 301 304 303 310 310 308 304 305 307
210 207 205 206 198 200 199 194 190 195 194 200 208 202 194 187 193 191 193 203 226 242 255 256 250 241 227 170 203 282 296 295 270 280 289 293 295 298 287 305 308 306 303
218 210 220 211 200 199 199 199 196 192 200 207 209 221 210 197 196 196 201 196 206 253 273 279 268 243 162 193 189 240 280 284 281 279 283 294 302 302 303 310 302 309 307
224 225 226 208 216 208 196 195 193 200 199 197 210 218 229 232 221 188 177 189 201 220 266 279 257 252 235 242 283 272 257 269 278 281 283 280 286 296 302 306 306 310 314
233 237 225 216 219 227 213 198 212 207 192 207 209 209 225 227 219 194 189 193 202 216 240 247 252 252 249 257 273 280 278 270 263 277 278 277 291 297 303 294 296 293 288
252 243 240 232 233 215 204 213 221 199 205 199 207 208 210 217 212 190 194 200 216 225 230 232 227 243 252 262 280 281 284 275 277 265 274 284 285 291 289 293 296 293 289
268 260 254 235 239 229 223 222 209 197 199 199 196 201 203 210 204 196 190 198 219 229 229 219 210 230 264 295 294 280 277 289 292 291 287 288 287 285 280 292 287 295 299
289 281 279 265 252 249 237 228 201 204 212 190 206 203 193 199 202 202 205 187 216 215 228 217 215 216 239 253 256 257 292 305 305 300 289 284 280 279 277 269 284 283 292
295 288 282 270 251 244 249 208 195 197 193 192 189 180 189 198 217 230 227 192 193 193 204 221 224 235 240 252 278 264 291 308 306 297 291 280 270 263 264 260 264 276 290
317 300 295 293 287 281 232 216 180 169 163 159 152 172 219 208 212 222 221 216 210 182 205 212 224 251 264 298 299 297 306 310 297 291 297 298 297 294 294 285 274 273 266
317 305 306 329 337 338 298 109 63 98 136 156 148 153 189 178 130 52 346 43 150 165 203 233 256 291 309 309 297 295 308 293 302 303 301 298 298 295 290 287 280 279 284
297 306 320 45 12 21 54 112 124 132 132 153 164 176 173 156 155 66 69 42 344 327 313 311 299 316 309 290 285 306 321 331 320 307 301 301 293 298 293 304 306 310 312
315 316 330 42 65 47 50 71 65 351 117 171 213 135 134 144 243 291 286 262 262 275 302 285 265 274 264 27 22 357 339 327 307 301 297 297 298 303 306 319 305 334 295
333 14 2 350 21 78 53 18 44 78 61 67 99 115 12 64 320 337 341 337 317 306 10 294 280 68 39 8 349 336 330 318 310 302 288 291 300 310 318 322 355 298 295
77 17 352 54 18 53 51 61 97 356 55 81 91 97 89 56 42 350 350 357 346 353 30 32 35 26 22 14 5 344 304 299 300 287 285 303 314 314 322 321 315 298 293
331 71 37 331 285 95 95 91 58 51 29 327 17 60 88 65 35 70 54 44 21 21 43 43 44 28 10 355 325 313 291 309 316 325 328 324 316 309 315 318 323 288 293
29 11 43 320 351 42 67 74 71 71 244 285 331 72 22 50 73 71 69 84 96 51 24 32 30 18 8 334 327 326 328 351 344 334 337 338 309 299 307 313 304 300 314
297 118 189 225 301 251 90 96 212 220 181 95 72 240 4 51 60 56 50 68 70 52 41 49 358 15 350 359 356 348 323 359 319 351 335 311 306 314 314 306 296 316 305
258 231 204 225 233 94 99 117 161 232 102 88 103 285 86 95 96 83 68 36 65 65 29 41 358 21 13 354 357 343 347 313 332 335 330 327 327 322 308 317 316 313 305
314 287 247 198 161 142 95 93 156 140 123 117 29 51 89 68 78 76 65 56 27 50 49 67 33 26 1 349 328 316 310 339 348 338 320 306 314 331 334 329 319 320 327
232 234 243 215 129 110 104 158 134 123 112 97 90 87 73 83 82 76 73 49 35 30 32 48 43 13 332 314 312 288 2 343 313 282 315 337 347 335 335 335 333 339 342
278 225 177 128 119 116 120 111 93 100 101 91 90 91 95 84 79 77 67 51 46 30 33 37 34 10 339 342 336 332 334 321 325 325 13 28 357 346 348 337 328 321 334
179 126 126 125 120 122 116 107 107 98 91 91 90 84 79 82 76 62 48 54 54 47 20 8 6 1 6 358 349 346 349 29 23 8 13 24 28 15 334 330 327 328 354
111 115 109 113 113 111 112 111 103 97 98 90 88 86 92 89 83 67 46 46 36 21 5 359 4 9 358 341 334 349 351 60 34 13 12 39 30 5 356 347 3 1 355